Regional Weather Roundup
Issued by NWS

Home | Current Version | Previous Version | Text Only | Print | Product List | Glossary On
Versions: 1 2 3 4 5 6 7 8 9 10 11 12 13 14 15 16 17 18 19 20 21 22 23 24 25 26 27
000
ASCA42 TJSJ 250810
RWRPR
PUERTO RICO/U.S. VIRGIN ISLANDS HOURLY WEATHER ROUNDUP
NATIONAL WEATHER SERVICE SAN JUAN PR
400 AM AST MON SEP 25 2017

PRZ001>002-007>008-010-250900-
PUERTO RICO

CITY           SKY/WX    TMP DP  RH WIND       PRES   REMARKS
SAN JUAN LMM   PTCLDY    81  77  89 CALM      29.89F
$$

VIZ001>002-250900-
U.S. VIRGIN ISLANDS

CITY           SKY/WX    TMP DP  RH WIND       PRES   REMARKS
$$

HOURLY WEATHER ROUNDUP FOR THE NEWS MEDIA

CITY           SKY/WX    TMP DP  RH WIND       PRES   REMARKS
ORLANDO        CLEAR     76  74  93 NW5       29.87S
NEW YORK       CLEAR     68  27  21 NE5       30.02F
NEWARK         CLEAR     70  64  81 N3        30.01S
CHICAGO        PTCLDY    71  59  65 S5        29.99S
HARTFORD       CLEAR     61  59  93 CALM      30.03S
BOSTON         CLEAR     66  63  90 CALM      30.03S
DALLAS         PTCLDY    78  66  66 SE9       29.88F
PHILADELPHIA   PTCLDY    71  67  87 S3        30.02S
LOS ANGELES    PTCLDY    67  48  50 CALM      29.86S
WASHINGTON DC  CLEAR     65  65 100 CALM      30.03F



USA.gov is the U.S. government's official web portal to all federal, state and local government web resources and services.